Regional Weather Roundup
Issued by NWS Wakefield, VA

Home | Current Version | Previous Version | Graphics & Text | Print | Product List | Glossary On
Versions: 1 2 3 4 5 6 7 8 9 10 11 12 13 14 15 16 17 18 19 20 21 22 23 24 25 26 27 28 29 30 31 32 33 34 35 36 37 38 39 40 41 42 43 44 45 46 47 48 49 50
000
ASUS41 KAKQ 170515
RWRAKQ

REGIONAL WEATHER ROUNDUP
NATIONAL WEATHER SERVICE WAKEFIELD VA
100 AM EDT TUE OCT 17 2017

Note: "fair" indicates few or no clouds below 12,000 feet with no
significant weather and/or obstructions to visibility. * = Denotes
station may not report precipitation (e.g., rain,snow,etc.),
thunder or fog.

VAZ042-051-052>054-056-170600-
NORTHERN VIRGINIA

CITY           SKY/WX    TMP DP  RH WIND       PRES   REMARKS
WASH NATIONAL  CLEAR     52  38  58 NW10      30.27R
DULLES         CLEAR     50  35  56 N9        30.26S
FORT BELVOIR   CLEAR     50  38  63 N3        30.26S
QUANTICO       CLEAR     48  41  76 NW9       30.28R
FREDERICKSBRG* CLEAR     50  40  69 N5        30.26S
STAFFORD*      CLEAR     41  40  97 CALM      30.31S
WARRENTON      CLEAR     46  36  68 N3        30.27S
CULPEPER*      CLEAR     45  37  72 CALM      30.28F
MANASSAS*      CLEAR     42  39  89 CALM      30.28S
LEESBURG*      CLEAR     50  37  62 CALM      30.28S
WINCHESTER     CLEAR     41  36  81 CALM      30.28S
FRONT ROYAL*   CLEAR     45  37  76 CALM      30.28S
LURAY*         CLEAR     45  37  76 CALM      30.28S
$$

VAZ048-049-060>072-079>083-170600-
CENTRAL AND SOUTH CENTRAL VIRGINIA

CITY           SKY/WX    TMP DP  RH WIND       PRES   REMARKS
RICHMOND       CLEAR     48  40  73 N7        30.25S
CHESTERFIELD*  NOT AVBL
PETERSBURG*    CLEAR     49  39  67 N8        30.25S
HANOVER        CLEAR     48  39  71 CALM      30.27R
TAPPAHANNOCK*  CLEAR     52  32  46 NE3       30.25S
QUINTON*       FAIR      46  42  84 NW5       30.24S
CHARLOTTSVILLE CLEAR     50  39  66 NW5       30.27S
GORDONSVILLE*  CLEAR     43  41  95 CALM      30.28S
ORANGE*        CLEAR     45  37  76 CALM      30.28S
LOUISA*        CLEAR     45  37  76 CALM      30.26F
BUMPASS*       FAIR      52  38  58 N5        30.26S
FARMVILLE*     CLEAR     49  43  79 N3        30.26S
CREWE*         FAIR      47  45  90 NW6       30.26S
FORT PICKETT*  FAIR      46  44  91 N7        30.25S
CHASE CITY*    FAIR      48  40  73 CALM      30.26S
CLARKSVILLE*   FAIR      50  41  71 N7        30.25S
SOUTH HILL*    CLEAR     46  43  89 N5        30.31S
LAWRENCEVILLE* FAIR      47  42  81 N5        30.24S
EMPORIA*       CLEAR     45  41  87 NW3       30.25S
$$

VAZ088>098-170600-
SOUTHEAST VIRGINIA

CITY           SKY/WX    TMP DP  RH WIND       PRES   REMARKS
NORFOLK        MOCLDY    60  45  57 NE17G25   30.19R
VIRGINIA BEACH PTCLDY    57  42  57 N13       30.18R
NORFOLK NAVAL  MOCLDY    60  47  61 N18G28    30.21
WEST POINT*    CLEAR     48  43  82 CALM      30.25S
SALUDA*        FAIR      56  43  61 N14G20    30.22S
NEWPORT NEWS   CLEAR     53  41  63 N8        30.21S
LANGLEY AFB    PTCLDY    56  42  58 N10       30.20S
FORT EUSTIS    CLEAR     54  41  60 N8        30.19S
WILLIAMSBURG*  CLEAR     50  46  87 N5        30.24R
HR EXEC AP*    NOT AVBL
FRANKLIN*      CLEAR     46  42  85 N3        30.22S
US460-WAKEFLD  CLEAR     48  43  82 N3        30.23R
$$

VAZ020-022-025-037-045-170600-
WEST CENTRAL AND SOUTHWEST VIRGINIA

CITY           SKY/WX    TMP DP  RH WIND       PRES   REMARKS
STAUNTON*      CLEAR     38  35  90 CALM      30.30S
WAYNESBORO*    CLEAR     43  38  82 W3        30.28F
HOT SPRINGS VA CLEAR     38  35  89 CALM      30.27F
LYNCHBURG      CLEAR     44  40  85 NW5       30.27F
DANVILLE       CLEAR     50  40  68 N8        30.27S
SOUTH BOSTON*  FAIR      48  40  73 N6        30.26F
MARTINSVILLE   CLEAR     39  38  97 CALM      30.31S
ROANOKE        CLEAR     48  40  73 CALM      30.31S
BLACKSBURG     CLEAR     40  38  93 NW3       30.32S
DUBLIN*        CLEAR     44  38  78 NW3       30.31S
MARION*        CLEAR     38  35  89 CALM      30.34S
HILLSVILLE*    CLEAR     42  33  69 CALM      30.28S
RICHLANDS*     FAIR      43  36  76 CALM      30.32S
WISE*          CLEAR     43  36  75 N3        30.32F
ABINGDON*      CLEAR     43  39  87 CALM      30.31F
$$

MDZ021>025-VAZ099-100-170600-
SOUTHERN MARYLAND AND THE DELMARVA PENINSULA

CITY           SKY/WX    TMP DP  RH WIND       PRES   REMARKS
PATUXENT RIVER CLEAR     54  39  57 NW15      30.23R
BAY BRIDGE APT CLEAR     57  36  44 N12G23    30.25R
LEONARDTOWN    NOT AVBL
DOVER          NOT AVBL
GEORGETOWN     CLEAR     47  41  80 N3        30.23R
EASTON         CLEAR     48  41  76 NE6       30.28R
CAMBRIDGE      CLEAR     43  43 100 N5        30.23S
SALISBURY      CLEAR     47  42  83 N5        30.22R
OCEAN CITY     CLEAR     48  44  86 N8        30.22R
WALLOPS ISLAND CLEAR     48  44  86 N7        30.21S
ACCOMACK*      CLEAR     49  44  83 N5        30.21S
$$

NCZ012>017-030>032-170600-
NORTH CENTRAL AND EASTERN NORTH CAROLINA

CITY           SKY/WX    TMP DP  RH WIND       PRES   REMARKS
ROANOKE RAPIDS FAIR      46  43  87 N6        30.23S
RALEIGH        PTCLDY    51  44  77 NE7       30.25S
ELIZABETH CITY CLEAR     57  51  80 N13       30.18S
AHOSKIE*       CLEAR     48  44  86 N3        30.22S
EDENTON*       CLEAR     52  48  87 CALM      30.20S
CURRITUCK*     CLEAR     60  45  57 N15G22    30.19R
KILL DEVIL HLS CLOUDY    62  43  50 N14G25    30.14S
MANTEO         CLOUDY   N/A N/A N/A NE23G35   30.16S
CAPE HATTERAS  CLOUDY    64  48  56 NE15G31   30.13R
TARBORO*       NOT AVBL
GOLDSBORO      CLEAR     53  47  79 N5        30.19S
WASHINGTON     CLEAR     51  46  83 N5        30.20S
GREENVILLE     CLEAR     50  45  81 N5        30.21S
NEW BERN       PTCLDY    57  46  66 N14G23    30.19R
WILMINGTON     CLOUDY    59  49  69 N14       30.16S
$$

VAZ048-170600-
ELSEWHERE

CITY           SKY/WX    TMP DP  RH WIND       PRES   REMARKS
HARRISBURG PA  CLEAR     46  33  60 CALM      30.27R
BALTIMORE      CLEAR     47  39  74 NW3       30.25S
ANNAPOLIS      CLEAR     55  42  61 N9        30.25R
ANDREWS AFB    CLEAR     50  37  61 N9        30.25R
PHILADELPHIA   CLEAR     48  34  58 N10       30.27R
HENDERSON NC   CLEAR     46  40  77 CALM      30.25S
GREENSBORO     CLEAR     49  41  74 NE6       30.26S
ROCKY MOUNT    CLEAR     52  46  80 N8        30.22F
$$

VAZ100-170600-
MARINE

STATION/POSITION TIME  TEMP    WIND        PRES    WAVE   SWELL
                       AIR SEA DIR/SP/G            HT/PER HT/PER
                 (UTC) (F)     (DEG/KT/KT) (MB)    (FT/S) (FT/S)
BRANDYWINE LGT   0442   54      30/ 26/ 29 1023.7R
CAPE MAY NJ      0448   50 66   40/  6/ 12 1023.1R
LEWES DE         0442   56 64   30/ 21/ 24 1023.3R
15NM E FENWICK I 0450   58 68  360/ 21/ 25 1022.5R   6/ 5   2/13
OCEAN-CITY-INLET 0442   57 67   40/ 10/ 17 1023.2R
WACHAPREAGUE VA  0442   51 65  340/  5/  8 1022.9S
THOMAS POINT MD  0500   56 69  340/ 16/ 18   N/A
COVE POINT MD    0442   59     350/ 22/ 26 1024.0R
SOLOMONS ISLAND  0442   55 71  340/ 11/ 14 1023.3R
BISHOPS HEAD MD  0442   54 64  340/  6/  8 1023.5R
PINEY POINT MD   0442           10/ 13/ 15   N/A
CAMBRIDGE MD     0442   55 68              1024.3R
LEWISETTA VA     0442   58 67   10/ 12/ 17 1023.5R
RAPPAHANNOCK LGT 0442           20/ 21/ 24 1023.2F
YORK RVR RNG VA  0442   61      10/ 21/ 25 1022.8F
YORKTOWN VA      0442   57 72  350/ 13/ 15 1022.8F
DOMINION TERM VA 0442   58     360/ 11/ 14 1023.0R
KIPTOPEKE VA     0442      70   30/  8/ 11   N/A
CAPE HENRY VA    0442   60      20/ 24/ 28   N/A
WILLOUBY STN VA  0442   61     360/ 14/ 16 1022.4R
S CRANEY ISL VA  0442   61     360/ 18/ 22 1022.1S
CAPE HENRY BUOY  0430      71                N/A     6/ 6
CAPE CHARLES BUO 0451      71                N/A     5/ 6
64NM E OF VA BCH 0450   62 69   10/ 25/ 31 1020.4R   9/ 7   2/11
DUCK PIER NC     0442   63 70   20/ 32/ 35 1020.5R
44100 DUCK FRF   0435      72                N/A    10/ 7   2/11
44056 DUCK FRF   0430      72                N/A     8/ 7   2/11
OREGON INLET NC  0442   63 72  360/ 19/ 29 1020.3S
HATTERAS NC      0442   65 73   20/ 26/ 33 1019.8R
DIAMOND SHLS NC  0450   64 81   10/ 27/ 33 1019.0R   8/ 8
CAPE LOOKOUT NC  0500   62     360/ 19/ 24 1020.0R
$$



USA.gov is the U.S. government's official web portal to all federal, state and local government web resources and services.